Flag for Austria Weather past 2 weeks in Eisenstadt, Burgenland, Austria

Now
48 °F

Cool.


Feels Like: 45 °F
Forecast: 38 / 53 °F
Wind: 6 mph from East

Location: Eisenstadt

Current Time: Oct 25, 2014 at 4:43:30 PM

Latest Report: Oct 25, 2014 at 4:00 PM


Visibility: N/A

Pressure: 30.23 "Hg

Humidity: 82%

Dew point: 42 °F

Location of EisenstadtLocation

Historic Weather in Eisenstadt — Graph

°F

Eisenstadt temperature yesterday

Maximum temperature yesterday: 51 °F (at 1:00 PM)
Minimum temperature yesterday: 42 °F (at 11:00 PM)
Average temperature yesterday: 48 °F

Past Weeks' High & Low Weather Summary

 TemperatureHumidityPressure
High72 °F (Oct 20, 1:00 PM)100% (Oct 11, 8:00 AM)30.32 "Hg (Oct 11, 8:00 AM)
Low40 °F (Oct 25, 8:00 AM)52% (Oct 14, 3:00 PM)29.61 "Hg (Oct 22, 1:00 AM)
Average56 °F83%29.95 "Hg
* Reported Oct 10 3:00 PM — Oct 25 3:00 PM, Eisenstadt, Weather by CustomWeather, © 2014

Note: Actual official high and low records may vary slightly from our data, if they occured in-between our weather recording intervals... More about our weather records

Advertising

Eisenstadt weather history for previous 24 hours

 ConditionsComfort  
Time TempWeatherWind HumidityBarometerVisibility
3:00 PM
Oct 25
48 °FCool.6 mph81%30.23 "HgN/A
2:00 PM47 °FOvercast.5 mph85%30.25 "Hg6 mi
1:00 PM46 °FCool.5 mph87%30.25 "HgN/A
12:00 PM45 °FCool.5 mph84%30.27 "HgN/A
11:00 AM44 °FOvercast.2 mph81%30.26 "Hg6 mi
10:00 AM42 °FQuite cool.1 mph83%30.25 "HgN/A
9:00 AM41 °FQuite cool.1 mph85%30.25 "HgN/A
8:00 AM40 °FOvercast.No wind90%30.24 "Hg5 mi
7:00 AM41 °FOvercast.1 mph88%30.22 "Hg6 mi
6:00 AM41 °FOvercast.1 mph85%30.22 "Hg6 mi
5:00 AM41 °FOvercast.1 mph85%30.22 "Hg6 mi
4:00 AM41 °FOvercast.1 mph82%30.22 "Hg6 mi
3:00 AM41 °FQuite cool.2 mph82%30.22 "HgN/A
2:00 AM41 °FOvercast.1 mph82%30.22 "Hg6 mi
1:00 AM41 °FQuite cool.2 mph86%30.22 "HgN/A
12:00 AM41 °FFog.1 mph86%30.22 "HgN/A
11:00 PM
Oct 24
42 °FFog.1 mph83%30.22 "Hg6 mi
10:00 PM43 °FQuite cool.1 mph80%30.19 "HgN/A
9:00 PM45 °FQuite cool.6 mph78%30.15 "HgN/A
8:00 PM47 °FOvercast.6 mph77%30.13 "Hg6 mi
7:00 PM48 °FOvercast.7 mph74%30.12 "Hg6 mi
6:00 PM49 °FCool.5 mph72%30.10 "HgN/A
5:00 PM51 °FOvercast.6 mph68%30.08 "Hg5 mi
4:00 PM51 °FCool.6 mph70%30.08 "HgN/A
Weather by CustomWeather, © 2014

See weather overviewHow to use our weather pages